This is the latest recevied weather packets stored in our database for station/object EA7RX-4. If no packets are shown the sender has not sent any weather packets the latest 10 day(s).
| Time | Temp. | Humidity | Pressure | Rain* | Wind** | Luminosity | Snow |
|---|---|---|---|---|---|---|---|
| 1787763003 | 25° C | 31% | 1010.8 hPa | 0 mm | - | 163 W/m² | - |
| 1787762403 | 25° C | 32% | 1011 hPa | 0 mm | - | 171 W/m² | - |
| 1787761803 | 25° C | 32% | 1011.2 hPa | 0 mm | - | 171 W/m² | - |
| 1787761203 | 25° C | 32% | 1010.8 hPa | 0 mm | - | 183 W/m² | - |
| 1787760603 | 25.56° C | 32% | 1010.9 hPa | 0 mm | - | 189 W/m² | - |
| 1787760003 | 25.56° C | 31% | 1011.2 hPa | 0 mm | - | 204 W/m² | - |
| 1787759403 | 25.56° C | 31% | 1010.8 hPa | 0 mm | - | 185 W/m² | - |
| 1787758803 | 26.11° C | 31% | 1010.9 hPa | 0 mm | - | 225 W/m² | - |
| 1787758203 | 26.11° C | 30% | 1010.9 hPa | 0 mm | - | 605 W/m² | - |
| 1787757603 | 26.67° C | 29% | 1010.8 hPa | 0 mm | - | 697 W/m² | - |
| 1787757003 | 27.22° C | 28% | 1011 hPa | 0 mm | - | 460 W/m² | - |
| 1787756403 | 26.67° C | 26% | 1010.6 hPa | 0 mm | - | 420 W/m² | - |
| 1787755803 | 26.67° C | 26% | 1011 hPa | 0 mm | - | 687 W/m² | - |
| 1787755203 | 26.11° C | 27% | 1011 hPa | 0 mm | - | 357 W/m² | - |
| 1787754603 | 26.11° C | 26% | 1010.8 hPa | 0 mm | - | 737 W/m² | - |
| 1787754003 | 26.11° C | 28% | 1011 hPa | 0 mm | - | 328 W/m² | - |
| 1787753403 | 25.56° C | 29% | 1011.5 hPa | 0 mm | - | 773 W/m² | - |
| 1787752803 | 26.67° C | 26% | 1011 hPa | 0 mm | - | 551 W/m² | - |
| 1787752203 | 26.11° C | 25% | 1011.3 hPa | 0 mm | - | 903 W/m² | - |
| 1787751603 | 26.11° C | 25% | 1011.3 hPa | 0 mm | - | 370 W/m² | - |
| 1787751003 | 26.11° C | 27% | 1011.2 hPa | 0 mm | - | 404 W/m² | - |
| 1787750403 | 26.11° C | 30% | 1011 hPa | 0 mm | - | 661 W/m² | - |
| 1787749803 | 26.67° C | 31% | 1011 hPa | 0 mm | - | 528 W/m² | - |
| 1787749203 | 27.22° C | 29% | 1011 hPa | 0 mm | - | 617 W/m² | - |
| 1787748603 | 26.11° C | 32% | 1011.4 hPa | 0 mm | - | 906 W/m² | - |
* Rain latest hour (hover to see other rain measurements)
** Current wind speed in m/s (hover to see current wind gust speed)